Lid_Strength_Index
1 2 1 3 10 9 11 10 7 8 8 7 6 7 8 8 9 13 6 4 1 0 -0 -1 -1 -1 -1 -1 -1 -1 -1 -1 -1 -1 -1 -1 -1 -1 -1 -2 -2 -2 -1 -1 -1 -1 -2 -1 -1
3 2 2 5 11 13 12 9 9 8 7 6 6 6 7 8 7 6 7 5 3 1 0 -0 -0 -1 -1 -1 -1 -1 -1 -1 -1 -1 -1 -1 -1 -1 -1 -1 -2 -2 -1 -1 -1 -1 -1 -2 -1
3 1 6 8 10 12 12 9 8 7 6 7 6 5 8 9 7 7 6 5 3 2 1 2 -0 -1 -1 -1 -1 -1 -1 -1 -1 -1 -1 -1 -1 -1 -1 -1 -2 -2 -2 -1 -1 -2 -1 -1 -1
3 4 6 10 11 10 9 9 8 8 7 6 7 8 6 5 6 5 5 5 5 3 3 2 2 1 -1 -1 -1 -1 -1 -1 -1 -1 -1 -1 -1 -1 -1 -2 -2 -2 -2 -2 -1 -2 -1 -1 -1
3 5 10 11 11 9 9 8 9 9 9 8 7 7 7 5 5 4 5 4 5 4 3 3 2 2 1 -1 -1 -1 -2 -1 -1 -1 -1 -1 -1 -1 -1 -2 -2 -2 -2 -1 -2 -1 -1 -1 -1
7 7 12 13 11 9 9 8 9 9 8 8 8 8 6 5 6 5 4 5 4 4 3 3 3 3 3 2 1 -1 -1 -2 -1 -1 -1 -1 -1 -1 -1 -2 -2 -2 -2 -2 -2 -2 -1 -1 -1
8 10 12 12 12 11 9 8 9 9 9 9 7 9 6 6 5 4 4 4 4 4 4 4 4 3 3 3 3 2 -1 -1 -1 -1 -1 -1 -1 -1 -1 -1 -2 -2 -2 -2 -2 -1 -1 -1 -1
8 10 12 13 13 12 9 9 8 9 9 7 7 9 9 6 5 4 4 4 4 3 3 3 4 3 3 3 3 3 2 -0 -1 -1 -0 0 0 -0 -1 -0 -1 -2 -2 -2 -2 -1 -1 -1 -1
7 12 13 12 12 11 9 10 7 7 9 8 7 8 6 5 5 5 6 5 4 3 3 3 2 2 3 3 3 3 3 2 1 0 1 1 0 -0 0 0 -1 -2 -2 -2 -2 -1 -1 -1 -1
10 12 12 10 10 10 9 9 9 9 9 9 7 6 6 6 6 6 7 6 5 5 3 2 2 2 1 1 2 2 2 2 -0 -0 -0 0 -0 0 -0 1 1 -1 -1 -1 -2 -2 -1 -1 0
10 12 11 10 8 9 9 9 8 9 10 9 10 8 7 7 7 7 7 6 6 4 4 3 2 2 2 2 1 0 1 1 2 0 -0 -0 -0 1 1 1 1 1 1 -0 -0 -0 0 0 1
11 10 10 9 8 9 9 8 9 9 9 8 8 7 7 8 7 7 7 7 6 5 4 3 3 3 3 2 2 1 0 1 2 1 -0 -0 0 0 1 1 1 1 1 1 0 0 0 0 1
11 11 9 9 9 9 8 9 10 9 9 8 7 7 8 8 8 7 7 6 6 5 4 4 3 3 3 3 3 2 2 0 1 1 0 -0 0 1 1 1 1 1 1 1 2 1 1 1 1
10 10 10 9 9 9 9 10 10 9 8 8 8 9 8 8 8 7 7 7 6 5 5 4 4 4 4 4 4 3 2 2 1 1 1 0 0 0 1 1 1 0 1 1 2 1 1 2 1
10 12 11 10 9 10 9 11 11 9 8 8 9 9 9 8 8 8 7 7 6 5 5 4 4 4 5 5 5 4 3 2 2 0 1 0 0 0 1 1 1 0 -0 1 2 1 1 1 1
12 12 14 10 10 9 11 14 9 9 9 10 10 10 10 9 8 8 7 7 6 6 5 5 5 5 5 5 5 5 4 3 2 2 -0 -0 -0 0 0 0 0 0 0 1 2 2 1 1 1
13 16 14 13 10 10 11 13 9 9 9 10 11 11 10 9 9 9 8 7 7 6 6 6 6 6 6 5 5 4 4 4 3 2 1 -0 0 1 1 0 0 -0 0 1 2 3 2 2 2
16 16 14 15 11 11 12 12 10 9 9 11 11 11 10 10 10 9 9 6 7 6 5 5 6 6 6 6 5 4 4 4 3 3 2 -0 -0 1 1 0 0 0 1 1 2 3 2 2 2
14 15 15 13 11 13 13 12 11 9 10 11 11 12 11 10 9 9 9 7 7 6 6 6 7 6 6 7 7 6 5 5 4 3 2 0 0 1 1 0 0 0 1 1 2 2 3 2 1
14 16 16 13 12 13 13 13 11 10 10 10 11 11 11 10 10 10 9 9 8 7 6 6 7 7 6 6 6 6 5 4 2 1 1 0 0 0 0 0 1 1 1 1 2 2 2 3 2
15 16 17 16 13 12 13 14 13 11 10 10 10 9 9 10 11 10 10 10 9 8 6 6 7 7 6 6 6 5 4 4 3 2 1 0 0 0 0 0 0 1 1 1 1 2 2 3 2
17 14 14 14 15 19 13 21 14 13 12 11 10 10 11 12 11 10 10 10 9 8 6 6 7 7 6 6 4 5 4 4 2 2 1 1 1 0 0 1 1 1 1 1 1 1 1 2 3
15 14 14 15 16 16 18 20 16 14 15 12 11 10 11 12 11 11 10 9 8 8 6 6 7 7 7 6 5 2 2 2 1 2 2 1 1 0 1 1 1 1 1 1 1 1 1 2 3
13 14 15 16 16 21 18 19 18 17 15 13 11 11 11 12 12 11 10 9 9 8 7 6 7 8 8 7 6 4 3 2 3 3 3 3 3 2 1 1 1 1 1 2 3 3 3 4 4
15 17 21 22 23 20 16 19 17 12 12 11 11 11 12 12 12 12 12 11 10 9 8 7 7 9 8 7 7 6 4 4 4 4 4 4 4 4 4 3 4 3 4 4 5 5 5 5 6
17 17 21 24 22 21 18 20 16 12 11 11 11 12 12 13 12 12 12 11 10 9 8 7 7 9 9 8 8 7 6 5 5 5 5 5 5 5 5 5 4 5 5 5 5 6 6 6 7
17 20 17 20 22 21 18 16 14 13 13 12 12 12 13 13 13 13 12 12 11 9 9 8 7 8 9 9 9 9 8 7 7 6 6 5 5 5 5 5 6 6 6 6 6 7 8 8 8
16 16 21 20 25 23 19 19 18 16 14 13 13 13 13 13 13 13 13 12 11 10 9 8 7 8 9 9 9 9 9 8 8 8 8 8 7 7 8 8 8 8 9 8 9 9 9 10 10
18 19 18 18 19 21 21 19 16 14 13 13 13 12 13 14 14 13 13 12 11 10 9 9 8 8 9 9 10 10 10 10 9 9 9 9 9 9 10 10 10 10 10 10 11 11 11 11 12
16 17 18 21 21 20 19 19 14 13 12 12 12 11 13 13 13 13 13 12 12 11 10 9 9 9 9 9 10 10 10 10 10 10 9 10 10 10 11 11 11 11 11 11 11 12 12 12 12